| time (UTC) | temp F | wind direction | speed MPH | gust MPH | rain 1hr in | rain 24hr in | rain mn in | humidity % | barometer mb |
| 20260903081612 | 60 | 148 | 0.0 | 0.0 | 0.00 | 0.00 | 0.00 | 88 | 1014.0 |
| 20260903080051 | 60 | 148 | 0.0 | 0.0 | 0.00 | 0.00 | 0.00 | 88 | 1013.9 |
| 20260903074554 | 60 | 148 | 0.0 | 0.0 | 0.00 | 0.00 | 0.00 | 88 | 1013.7 |
| 20260903073049 | 60 | 154 | 0.0 | 0.0 | 0.00 | 0.00 | 0.00 | 88 | 1013.9 |
| 20260903071553 | 60 | 153 | 0.0 | 0.0 | 0.00 | 0.00 | 0.00 | 88 | 1014.0 |
| 20260903070046 | 60 | 186 | 0.0 | 0.0 | 0.00 | 0.00 | 0.00 | 88 | 1014.1 |
| 20260903064549 | 60 | 150 | 0.0 | 5.0 | 0.00 | 0.00 | 0.00 | 88 | 1014.2 |
| 20260903063048 | 60 | 159 | 0.0 | 4.0 | 0.00 | 0.00 | 0.00 | 88 | 1014.1 |
| 20260903061540 | 61 | 202 | 0.0 | 0.0 | 0.00 | 0.00 | 0.00 | 88 | 1014.5 |
| 20260903060042 | 61 | 187 | 0.0 | 7.0 | 0.00 | 0.00 | 0.00 | 88 | 1014.7 |
| 20260903054535 | 61 | 146 | 0.0 | 0.0 | 0.00 | 0.00 | 0.00 | 88 | 1015.0 |
| 20260903053037 | 62 | 181 | 0.0 | 0.0 | 0.00 | 0.00 | 0.00 | 87 | 1015.4 |
| 20260903051532 | 62 | 170 | 2.0 | 8.0 | 0.00 | 0.00 | 0.00 | 87 | 1015.4 |
| 20260903050041 | 62 | 188 | 1.0 | 9.0 | 0.00 | 0.00 | 0.00 | 86 | 1015.5 |
| 20260903044530 | 62 | 163 | 1.0 | 5.0 | 0.00 | 0.00 | 0.00 | 85 | 1015.5 |
| 20260903043027 | 62 | 92 | 0.0 | 1.0 | 0.00 | 0.00 | 0.00 | 84 | 1015.5 |
| 20260903041526 | 62 | 217 | 2.0 | 12.0 | 0.00 | 0.00 | 0.00 | 84 | 1015.3 |
| 20260903040024 | 63 | 145 | 3.0 | 12.0 | 0.00 | 0.00 | 0.00 | 83 | 1015.4 |
| 20260903034524 | 63 | 153 | 2.0 | 6.0 | 0.00 | 0.01 | 0.00 | 82 | 1016.0 |
| 20260903033018 | 63 | 122 | 0.0 | 12.0 | 0.00 | 0.01 | 0.00 | 81 | 1016.1 |
| 20260903031516 | 63 | 226 | 0.0 | 7.0 | 0.00 | 0.01 | 0.00 | 82 | 1016.3 |
| 20260903030016 | 63 | 178 | 1.0 | 7.0 | 0.00 | 0.01 | 0.00 | 83 | 1016.6 |
| 20260903024515 | 63 | 207 | 0.0 | 7.0 | 0.00 | 0.01 | 0.00 | 83 | 1016.5 |
| 20260903023024 | 63 | 171 | 0.0 | 7.0 | 0.00 | 0.01 | 0.00 | 84 | 1016.8 |
| 20260903021518 | 63 | 138 | 2.0 | 13.0 | 0.00 | 0.01 | 0.00 | 84 | 1016.7 |
| 20260903020040 | 64 | 180 | 1.0 | 10.0 | 0.00 | 0.01 | 0.00 | 85 | 1017.0 |
| 20260903014514 | 64 | 136 | 1.0 | 6.0 | 0.00 | 0.01 | 0.00 | 86 | 1017.2 |
| 20260903013013 | 64 | 188 | 4.0 | 12.0 | 0.00 | 0.01 | 0.00 | 87 | 1017.2 |
| 20260903011512 | 64 | 172 | 2.0 | 16.0 | 0.00 | 0.01 | 0.00 | 87 | 1017.3 |
| 20260903010012 | 64 | 177 | 1.0 | 7.0 | 0.00 | 0.01 | 0.00 | 87 | 1017.6 |
| 20260903004511 | 64 | 184 | 2.0 | 7.0 | 0.00 | 0.01 | 0.00 | 87 | 1017.5 |
| 20260903003011 | 64 | 170 | 0.0 | 7.0 | 0.00 | 0.01 | 0.00 | 86 | 1017.0 |
| 20260903001510 | 64 | 130 | 2.0 | 5.0 | 0.00 | 0.01 | 0.00 | 86 | 1017.1 |
| 20260903000010 | 64 | 158 | 0.0 | 9.0 | 0.00 | 0.01 | 0.00 | 87 | 1016.4 |
| 20260902234508 | 64 | 167 | 2.0 | 12.0 | 0.00 | 0.01 | 0.00 | 87 | 1016.7 |
| 20260902233009 | 64 | 147 | 0.0 | 7.0 | 0.00 | 0.01 | 0.00 | 87 | 1016.9 |
| 20260902231509 | 64 | 184 | 0.0 | 10.0 | 0.00 | 0.01 | 0.00 | 87 | 1017.4 |
| 20260902230001 | 64 | 170 | 2.0 | 8.0 | 0.00 | 0.01 | 0.00 | 87 | 1017.9 |
| 20260902224601 | 64 | 169 | 0.0 | 4.0 | 0.00 | 0.01 | 0.00 | 87 | 1018.3 |
| 20260902223059 | 64 | 169 | 0.0 | 4.0 | 0.00 | 0.01 | 0.00 | 87 | 1018.7 |
| 20260902221701 | 64 | 182 | 0.0 | 0.0 | 0.00 | 0.01 | 0.00 | 87 | 1018.7 |
| 20260902214558 | 64 | 171 | 0.0 | 0.0 | 0.00 | 0.01 | 0.00 | 87 | 1019.1 |
| 20260902213058 | 64 | 163 | 0.0 | 0.0 | 0.00 | 0.01 | 0.00 | 87 | 1018.9 |
| 20260902211600 | 64 | 134 | 0.0 | 7.0 | 0.00 | 0.01 | 0.00 | 87 | 1018.7 |
| 20260902210057 | 64 | 181 | 0.0 | 8.0 | 0.00 | 0.01 | 0.00 | 87 | 1018.9 |
| 20260902204612 | 64 | 134 | 0.0 | 4.0 | 0.00 | 0.01 | 0.00 | 87 | 1018.8 |
| 20260902203057 | 64 | 164 | 0.0 | 1.0 | 0.00 | 0.01 | 0.00 | 86 | 1018.9 |
| 20260902201555 | 64 | 177 | 1.0 | 6.0 | 0.00 | 0.01 | 0.00 | 86 | 1018.7 |
| 20260902200055 | 64 | 197 | 0.0 | 8.0 | 0.00 | 0.01 | 0.00 | 87 | 1019.1 |
| 20260902194558 | 64 | 157 | 1.0 | 7.0 | 0.00 | 0.01 | 0.00 | 86 | 1019.1 |
| 20260902193055 | 64 | 148 | 1.0 | 9.0 | 0.00 | 0.01 | 0.00 | 86 | 1019.4 |
| 20260902191602 | 64 | 188 | 2.0 | 6.0 | 0.00 | 0.01 | 0.00 | 86 | 1019.3 |
| 20260902190053 | 64 | 163 | 2.0 | 8.0 | 0.00 | 0.01 | 0.00 | 86 | 1019.5 |
| 20260902184553 | 64 | 158 | 0.0 | 6.0 | 0.00 | 0.01 | 0.00 | 86 | 1019.4 |
| 20260902183129 | 64 | 166 | 3.0 | 6.0 | 0.00 | 0.01 | 0.00 | 85 | 1019.8 |
| 20260902181551 | 64 | 163 | 0.0 | 7.0 | 0.00 | 0.01 | 0.00 | 86 | 1019.7 |
| 20260902180050 | 64 | 173 | 0.0 | 0.0 | 0.00 | 0.01 | 0.00 | 86 | 1019.8 |
| 20260902174549 | 64 | 161 | 0.0 | 6.0 | 0.00 | 0.02 | 0.00 | 85 | 1019.9 |
| 20260902173055 | 64 | 159 | 0.0 | 10.0 | 0.00 | 0.02 | 0.00 | 84 | 1019.9 |
| 20260902171558 | 63 | 163 | 2.0 | 10.0 | 0.00 | 0.02 | 0.00 | 84 | 1020.0 |
| 20260902170048 | 63 | 183 | 1.0 | 9.0 | 0.00 | 0.02 | 0.00 | 86 | 1019.9 |
| 20260902164559 | 63 | 142 | 1.0 | 10.0 | 0.00 | 0.02 | 0.00 | 85 | 1020.2 |
| 20260902163046 | 63 | 127 | 1.0 | 7.0 | 0.00 | 0.02 | 0.00 | 85 | 1020.3 |
| 20260902161546 | 63 | 134 | 3.0 | 9.0 | 0.00 | 0.02 | 0.00 | 85 | 1020.1 |
| 20260902160047 | 62 | 138 | 2.0 | 7.0 | 0.00 | 0.02 | 0.00 | 85 | 1020.4 |
| 20260902154553 | 62 | 182 | 0.0 | 6.0 | 0.00 | 0.04 | 0.00 | 84 | 1020.9 |
| 20260902153043 | 62 | 180 | 0.0 | 11.0 | 0.00 | 0.04 | 0.00 | 83 | 1020.7 |
| 20260902151542 | 62 | 180 | 3.0 | 7.0 | 0.00 | 0.04 | 0.00 | 84 | 1020.6 |
| 20260902150041 | 62 | 174 | 0.0 | 4.0 | 0.00 | 0.04 | 0.00 | 84 | 1021.0 |
| 20260902144543 | 62 | 146 | 0.0 | 6.0 | 0.00 | 0.05 | 0.00 | 83 | 1021.2 |
| 20260902143039 | 63 | 192 | 2.0 | 5.0 | 0.00 | 0.05 | 0.00 | 84 | 1020.9 |
| 20260902141539 | 63 | 168 | 0.0 | 4.0 | 0.00 | 0.05 | 0.00 | 84 | 1021.0 |
| 20260902140039 | 63 | 153 | 2.0 | 7.0 | 0.00 | 0.05 | 0.00 | 84 | 1020.6 |
| 20260902134534 | 62 | 198 | 1.0 | 5.0 | 0.00 | 0.05 | 0.00 | 83 | 1020.5 |
| 20260902133031 | 61 | 117 | 1.0 | 7.0 | 0.00 | 0.05 | 0.00 | 85 | 1020.5 |
| 20260902131527 | 60 | 178 | 1.0 | 6.0 | 0.00 | 0.05 | 0.00 | 86 | 1020.4 |
| 20260902130031 | 60 | 140 | 0.0 | 0.0 | 0.00 | 0.05 | 0.00 | 86 | 1020.5 |
| 20260902124523 | 59 | 23 | 0.0 | 0.0 | 0.00 | 0.06 | 0.00 | 85 | 1020.3 |
| 20260902123028 | 59 | 216 | 0.0 | 4.0 | 0.00 | 0.06 | 0.00 | 85 | 1020.2 |
| 20260902121520 | 59 | 139 | 1.0 | 7.0 | 0.00 | 0.06 | 0.00 | 87 | 1020.3 |
| 20260902120017 | 58 | 278 | 0.0 | 0.0 | 0.00 | 0.06 | 0.00 | 88 | 1020.3 |
| 20260902114518 | 57 | 155 | 0.0 | 2.0 | 0.00 | 0.20 | 0.00 | 88 | 1020.5 |
| 20260902113011 | 56 | 166 | 0.0 | 0.0 | 0.00 | 0.20 | 0.00 | 88 | 1020.5 |
| 20260902111509 | 56 | 165 | 0.0 | 0.0 | 0.00 | 0.20 | 0.00 | 88 | 1020.5 |
| 20260902110008 | 55 | 165 | 0.0 | 0.0 | 0.00 | 0.20 | 0.00 | 88 | 1020.6 |
| 20260902104506 | 56 | 202 | 0.0 | 0.0 | 0.00 | 0.32 | 0.00 | 88 | 1020.4 |
| 20260902103003 | 55 | 201 | 0.0 | 0.0 | 0.00 | 0.32 | 0.00 | 88 | 1020.3 |
| 20260902101502 | 55 | 202 | 0.0 | 0.0 | 0.00 | 0.32 | 0.00 | 88 | 1020.2 |
| 20260902094559 | 55 | 168 | 0.0 | 0.0 | 0.00 | 0.32 | 0.00 | 88 | 1019.7 |
| 20260902093058 | 55 | 169 | 0.0 | 1.0 | 0.00 | 0.32 | 0.00 | 88 | 1019.8 |
| 20260902091601 | 55 | 152 | 0.0 | 0.0 | 0.00 | 0.32 | 0.00 | 88 | 1019.7 |
| 20260902090058 | 55 | 152 | 0.0 | 0.0 | 0.00 | 0.32 | 0.00 | 88 | 1019.5 |
| 20260902084556 | 55 | 152 | 0.0 | 0.0 | 0.00 | 0.32 | 0.00 | 88 | 1019.5 |
| 20260902083055 | 55 | 186 | 0.0 | 0.0 | 0.00 | 0.32 | 0.00 | 88 | 1019.4 |